CW4120 Weather Reports


time (UTC)temp
C
wind
direction
speed
KPH
gust
KPH
rain 1hr
cm
rain 24hr
cm
rain mn
cm
humidity
%
barometer
mb
20260504205032 25 212 4.8 19.3 0.00 0.00 0.00 35 1009.9
20260504204532 25 177 8.0 22.5 0.00 0.00 0.00 35 1009.8
20260504204032 25 211 1.6 22.5 0.00 0.00 0.00 36 1009.9
20260504203532 25 208 4.8 19.3 0.00 0.00 0.00 36 1010.0
20260504202032 24 305 3.2 19.3 0.00 0.00 0.00 37 1010.1
20260504201532 24 182 6.4 27.4 0.00 0.00 0.00 36 1010.1
20260504201032 24 231 9.7 27.4 0.00 0.00 0.00 35 1010.2
20260504200532 24 179 12.9 27.4 0.00 0.00 0.00 35 1010.4
20260504195533 24 154 8.0 20.9 0.00 0.00 0.00 35 1010.6
20260504195032 24 172 6.4 19.3 0.00 0.00 0.00 36 1010.7
20260504194532 24 220 8.0 16.1 0.00 0.00 0.00 35 1010.6
20260504194032 24 173 8.0 20.9 0.00 0.00 0.00 35 1010.6
20260504193532 24 349 1.6 20.9 0.00 0.00 0.00 35 1010.6
20260504191532 23 276 4.8 16.1 0.00 0.00 0.00 36 1011.2
20260504190532 24 208 11.3 27.4 0.00 0.00 0.00 34 1011.4
20260504185532 23 181 4.8 25.7 0.00 0.00 0.00 36 1011.5
20260504185033 23 193 6.4 25.7 0.00 0.00 0.00 36 1011.5
20260504184532 24 178 8.0 25.7 0.00 0.00 0.00 36 1011.6
20260504183532 23 161 9.7 19.3 0.00 0.00 0.00 36 1011.7
20260504183032 23 256 8.0 19.3 0.00 0.00 0.00 36 1011.6
20260504182032 23 326 4.8 16.1 0.00 0.00 0.00 37 1011.9
20260504181533 23 143 4.8 16.1 0.00 0.00 0.00 38 1012.0
20260504180532 22 187 8.0 16.1 0.00 0.00 0.00 36 1012.1
20260504180032 23 244 6.4 16.1 0.00 0.00 0.00 38 1012.2
20260504175532 23 140 3.2 12.9 0.00 0.00 0.00 38 1012.2
20260504175032 23 129 4.8 12.9 0.00 0.00 0.00 37 1012.3
20260504174532 22 305 3.2 11.3 0.00 0.00 0.00 40 1012.3
20260504173532 22 318 3.2 19.3 0.00 0.00 0.00 39 1012.5
20260504173032 22 197 8.0 16.1 0.00 0.00 0.00 37 1012.6
20260504172532 22 214 1.6 8.0 0.00 0.00 0.00 41 1012.6
20260504171532 22 314 4.8 14.5 0.00 0.00 0.00 38 1012.8
20260504171032 22 204 4.8 16.1 0.00 0.00 0.00 38 1012.9
20260504170532 22 188 8.0 16.1 0.00 0.00 0.00 39 1013.0
20260504151032 19 119 1.6 19.3 0.00 0.00 0.00 44 1014.3
20260504150532 18 175 9.7 19.3 0.00 0.00 0.00 44 1014.2
20260504141032 17 225 1.6 11.3 0.00 0.00 0.00 48 1014.4
20260504140532 17 217 3.2 11.3 0.00 0.00 0.00 49 1014.4
20260504130532 13 139 3.2 8.0 0.00 0.00 0.00 57 1014.9
20260504110532 7 107 1.6 1.6 0.00 0.00 0.00 76 1015.3
20260504081032 8 352 1.6 1.6 0.00 0.00 0.00 76 1015.5
20260504080532 8 352 0.0 1.6 0.00 0.00 0.00 76 1015.5
20260504050532 7 352 0.0 0.0 0.00 0.00 0.00 80 1016.0
20260504045533 7 352 0.0 0.0 0.00 0.00 0.00 80 1015.9
20260504044532 6 352 0.0 0.0 0.00 0.00 0.00 80 1016.0
20260504044032 6 352 0.0 0.0 0.00 0.00 0.00 80 1016.0
20260504043532 6 352 0.0 0.0 0.00 0.00 0.00 80 1015.9
20260504043032 6 352 0.0 0.0 0.00 0.00 0.00 81 1016.0
20260504042532 6 352 0.0 0.0 0.00 0.00 0.00 80 1015.9
20260504042033 6 352 0.0 0.0 0.00 0.00 0.00 80 1015.8
20260504041532 6 352 0.0 0.0 0.00 0.00 0.00 80 1015.8
20260504040533 6 352 0.0 0.0 0.00 0.00 0.00 79 1015.8
20260504040033 6 352 0.0 0.0 0.00 0.00 0.00 78 1015.8
20260504035533 6 352 0.0 0.0 0.00 0.00 0.00 78 1015.8
20260504035032 6 352 0.0 1.6 0.00 0.00 0.00 78 1016.0
20260504034533 6 352 0.0 1.6 0.00 0.00 0.00 77 1015.9
20260504034033 6 352 0.0 1.6 0.00 0.00 0.00 78 1016.0
20260504033532 6 352 0.0 1.6 0.00 0.00 0.00 77 1016.0
20260504033032 6 352 0.0 1.6 0.00 0.00 0.00 77 1015.9
20260504032532 7 352 0.0 1.6 0.00 0.00 0.00 76 1015.9
20260504032033 7 352 0.0 1.6 0.00 0.00 0.00 76 1015.9
20260504031533 7 352 0.0 1.6 0.00 0.00 0.00 75 1015.9
20260504031032 7 352 0.0 1.6 0.00 0.00 0.00 75 1015.7
20260504030532 7 352 0.0 1.6 0.00 0.00 0.00 74 1015.8
20260504030033 7 352 0.0 1.6 0.00 0.00 0.00 74 1015.9
20260504025532 7 352 0.0 1.6 0.00 0.00 0.00 74 1015.8
20260504024533 7 352 0.0 1.6 0.00 0.00 0.00 73 1015.7
20260504024032 7 352 0.0 0.0 0.00 0.00 0.00 73 1015.6
20260504023032 7 352 0.0 0.0 0.00 0.00 0.00 71 1015.6
20260504022532 7 352 0.0 0.0 0.00 0.00 0.00 70 1015.7
20260504022032 7 352 0.0 0.0 0.00 0.00 0.00 71 1015.7
20260504021532 8 352 0.0 0.0 0.00 0.00 0.00 70 1015.6
20260504021032 8 352 0.0 0.0 0.00 0.00 0.00 68 1015.5
20260504015532 8 352 0.0 0.0 0.00 0.00 0.00 66 1015.4
20260504015032 8 352 0.0 0.0 0.00 0.00 0.00 65 1015.4
20260504014533 8 352 0.0 0.0 0.00 0.00 0.00 64 1015.3
20260504014032 9 352 0.0 0.0 0.00 0.00 0.00 63 1015.3
20260504013533 9 352 0.0 1.6 0.00 0.00 0.00 62 1015.2
20260504013032 9 352 0.0 1.6 0.00 0.00 0.00 62 1015.2
20260504012532 10 352 0.0 1.6 0.00 0.00 0.00 61 1015.0
20260504012032 10 352 0.0 1.6 0.00 0.00 0.00 60 1014.9
20260504011532 10 352 0.0 1.6 0.00 0.00 0.00 60 1014.9
20260504011032 10 352 0.0 0.0 0.00 0.00 0.00 59 1015.0
20260504010532 10 352 0.0 1.6 0.00 0.00 0.00 58 1015.1
20260504010032 10 352 0.0 1.6 0.00 0.00 0.00 55 1015.1
20260504005532 11 352 0.0 1.6 0.00 0.00 0.00 55 1015.1
20260504005032 11 352 0.0 0.0 0.00 0.00 0.00 54 1015.0
20260504004532 11 352 0.0 0.0 0.00 0.00 0.00 52 1014.9
20260504004032 11 352 0.0 0.0 0.00 0.00 0.00 51 1014.8
20260504003032 12 352 0.0 0.0 0.00 0.00 0.00 50 1014.7
20260504002532 12 352 0.0 0.0 0.00 0.00 0.00 49 1014.7
20260504001033 13 352 0.0 1.6 0.00 0.00 0.00 44 1014.6
20260503235532 14 204 0.0 0.0 0.00 0.00 0.00 39 1014.4
20260503235032 14 204 0.0 1.6 0.00 0.00 0.00 38 1014.3
20260503234532 15 204 0.0 1.6 0.00 0.00 0.00 39 1014.3
20260503233532 15 213 0.0 1.6 0.00 0.00 0.00 37 1014.3
20260503232532 15 213 0.0 3.2 0.00 0.00 0.00 36 1014.2
20260503232032 15 269 0.0 3.2 0.00 0.00 0.00 38 1014.2
20260503231532 15 284 0.0 3.2 0.00 0.00 0.00 35 1014.1
20260503231033 15 178 1.6 4.8 0.00 0.00 0.00 36 1014.1
20260503230532 15 207 1.6 4.8 0.00 0.00 0.00 34 1014.1
20260503230032 15 234 1.6 12.9 0.00 0.00 0.00 33 1014.0
20260503225532 16 200 0.0 12.9 0.00 0.00 0.00 35 1014.0
20260503225032 16 217 1.6 12.9 0.00 0.00 0.00 33 1014.1
20260503224532 16 285 1.6 4.8 0.00 0.00 0.00 34 1014.1
20260503224032 16 282 1.6 8.0 0.00 0.00 0.00 34 1014.1
20260503223532 16 278 3.2 8.0 0.00 0.00 0.00 34 1014.2
20260503223032 16 88 1.6 4.8 0.00 0.00 0.00 33 1014.2
20260503222532 16 324 1.6 8.0 0.00 0.00 0.00 32 1014.2
20260503222032 16 262 3.2 9.7 0.00 0.00 0.00 32 1014.2
20260503221031 16 288 3.2 8.0 0.00 0.00 0.00 33 1014.2
20260503220532 16 331 3.2 9.7 0.00 0.00 0.00 32 1014.3
20260503220032 16 310 3.2 9.7 0.00 0.00 0.00 33 1014.2
20260503215532 16 231 4.8 9.7 0.00 0.00 0.00 33 1014.2
20260503215032 16 273 3.2 11.3 0.00 0.00 0.00 33 1014.2
20260503214532 16 280 1.6 11.3 0.00 0.00 0.00 33 1014.2
20260503214032 16 210 4.8 11.3 0.00 0.00 0.00 32 1014.3
20260503213532 16 45 4.8 11.3 0.00 0.00 0.00 32 1014.3
20260503212532 16 205 1.6 4.8 0.00 0.00 0.00 32 1014.3
20260503212032 16 258 1.6 19.3 0.00 0.00 0.00 32 1014.4
20260503211532 17 327 3.2 19.3 0.00 0.00 0.00 33 1014.4
20260503210032 16 287 1.6 4.8 0.00 0.00 0.00 33 1014.3
20260503205532 16 303 3.2 19.3 0.00 0.00 0.00 32 1014.3